Regional Weather Roundup
Issued by NWS

Home | Current Version | Previous Version | Graphics & Text | Print | Product List | Glossary On
Versions: 1 2 3 4 5 6 7 8 9 10 11 12 13 14 15 16 17 18 19 20 21 22 23 24 25 26 27 28 29 30 31 32 33 34 35 36 37 38 39 40 41 42 43 44 45 46 47 48 49 50
000
ASUS43 KDTX 030710
RWRMI
MICHIGAN HOURLY REGIONAL WEATHER ROUNDUP
NATIONAL WEATHER SERVICE DETROIT/PONTIAC MI
300 AM EDT MON AUG 03 2015

NOTE: "FAIR" INDICATES FEW OR NO CLOUDS BELOW 12,000 FEET WITH NO
SIGNIFICANT WEATHER AND/OR OBSTRUCTION TO VISIBILITY.

MIZ047>049-052>055-059>063-066>070-074>076-081>083-030800-
SOUTHEAST LOWER MICHIGAN

CITY           SKY/WX    TMP DP  RH WIND       PRES   REMARKS
ADRIAN         TSTM      63  62  97 S22G28    29.74F
ALMA           CLOUDY    62  62  99 CALM      29.71R
ANN ARBOR      TSTM      63  61  93 W14       29.76R
BAD AXE        CLOUDY    61  60  95 W8        29.68R
DETROIT CITY   CLOUDY    63  60  90 S17G23    29.70S
DETROIT        CLOUDY    64  61  90 SE17G30   29.70F THUNDER
FLINT          CLOUDY    65  61  87 SW6       29.71R
GROSSE ILE     RAIN      66  63  88 S23G33    29.68F
HILLSDALE      RAIN      63  63 100 S10       29.75F
HOWELL         CLOUDY    63  62  96 SW7       29.73R

CITY           SKY/WX    TMP DP  RH WIND       PRES   REMARKS
JACKSON        CLOUDY    63  61  93 S13       29.73F
LAMBERTVILLE   RAIN      64  62  91 S13G18    29.81F
LAPEER         NOT AVBL
MASON          CLOUDY    61  60  94 SW7       29.74R
MONROE         RAIN      64  63  96 S14G22    29.74F
MT. CLEMENS    CLOUDY    65  63  93 S12       29.69R
PONTIAC        CLOUDY    63  61  93 SW6       29.71R
PORT HURON     CLOUDY    63  61  94 S7        29.69R
TRI CITIES     CLOUDY    64  61  90 SW6       29.70R
YPSILANTI      LGT RAIN  66  61  84 S16G26    29.72R
$$
MIZ043>046-050>051-056>058-064>065-071>073-077>080-030800-
SOUTHWEST LOWER MICHIGAN

CITY           SKY/WX    TMP DP  RH WIND       PRES   REMARKS
BATTLE CREEK   CLOUDY    65  62  90 SW9       29.74S
BENTON HARBOR  CLOUDY    68  66  93 NW5       29.74R
BIG RAPIDS     CLOUDY    60  59  96 CALM      29.71R
COLDWATER      LGT RAIN  63  61  94 SW7       29.75R
HOLLAND        CLOUDY    67  64  90 W3        29.73R
GRAND RAPIDS   CLOUDY    65  65 100 SW5       29.72R
KALAMAZOO      CLOUDY    66  61  84 SW7       29.75R
MARSHALL       CLOUDY    64  61  91 SW5       29.73F
MUSKEGON       CLOUDY    65  61  87 CALM      29.73R
$$
MIZ016>042-030800-
NORTHERN LOWER MICHIGAN

CITY           SKY/WX    TMP DP  RH WIND       PRES   REMARKS
ALPENA         CLOUDY    62  60  93 W5        29.63S
BEAVER ISLAND    N/A     56  55  98 CALM      29.66S
BELLAIRE       CLOUDY    56  55  95 CALM      29.68R FOG
CADILLAC       FOG       57  55  94 W5        29.71R VSB 3/4
CHARLEVOIX     CLEAR     61  59  93 SW5       29.69R
FRANKFORT      FOG       56  56 100 CALM      29.69S VSB 1/4
GAYLORD        FOG       59  59 100 W8        29.68R VSB 3/4
GRAYLING       FOG       59  58  97 W5        29.69S VSB 1
HARBOR SPRINGS CLEAR     58  57  96 CALM      29.66R
HOUGHTON LAKE  CLOUDY    60  59  96 NW7       29.69R
MANISTEE       CLOUDY    57  54  88 CALM      29.71S VSB 3/4
OSCODA         CLOUDY    62  61  97 SW7       29.64S
PELLSTON       CLEAR     57  56  96 W5        29.65S
TRAVERSE CITY  MOCLDY    61  60  97 CALM      29.67S FOG
$$
MIZ007>008-015-030800-
EASTERN UPPER MICHIGAN

CITY           SKY/WX    TMP DP  RH WIND       PRES   REMARKS
KINROSS        CLEAR     57  57 100 W7        29.62S
MACKINAC ISLAN   N/A     59  58  97 W8        29.63S
NEWBERRY       PTCLDY    51  51  99 SW3       29.64S FOG
S. S. MARIE    CLOUDY    59  57  93 NW9       29.61S
$$
MIZ004>006-011>014-085-030800-
CENTRAL UPPER MICHIGAN

CITY           SKY/WX    TMP DP  RH WIND       PRES   REMARKS
MANISTIQUE     CLEAR     55  54  94 NW8       29.65R
ESCANABA       CLEAR     59  55  88 NW8       29.68R
MENOMINEE      CLEAR     61  55  82 NW3       29.70S
SAWYER-GWINN   CLEAR     54  52  93 NW3       29.69S
$$
MIZ001>003-009>011-084-030800-
WESTERN UPPER MICHIGAN

CITY           SKY/WX    TMP DP  RH WIND       PRES   REMARKS
IRON MOUNTAIN  PTCLDY    56  52  86 CALM      29.72R
HOUGHTON       MOCLDY    58  50  75 NW13      29.68S
COPPER HARBOR    N/A     61  53  75 N14       29.65S
IRONWOOD       MOCLDY    61  52  72 W6        29.74S
$$

ABBREVIATIONS USED IN REMARKS
   TC - TEMPERATURE IN CELSIUS
  WCI - WIND CHILL INDEX
   HX - HEAT INDEX
  VSB - VISIBILITY




USA.gov is the U.S. government's official web portal to all federal, state and local government web resources and services.